WA8VZY Weather Reports


Display with metric or nautical units.
time (UTC)temp
F
wind
direction
speed
MPH
gust
MPH
rain 1hr
in
rain 24hr
in
rain mn
in
humidity
%
barometer
mb
20260906065100 73 105 3.0 10.0 0.00 0.00 0.00 92 1013.4
20260906064558 73 75 3.0 10.0 0.00 0.00 0.00 92 1013.5
20260906064053 73 57 3.0 10.0 0.00 0.00 0.00 92 1013.4
20260906063548 73 29 3.0 10.0 0.00 0.00 0.00 92 1013.5
20260906063042 73 34 3.0 8.0 0.00 0.00 0.00 92 1013.6
20260906062531 73 65 3.0 11.0 0.00 0.00 0.00 92 1013.6
20260906062029 73 50 2.0 11.0 0.00 0.00 0.00 92 1013.5
20260906061523 73 92 2.0 7.0 0.00 0.00 0.00 92 1013.6
20260906061234 73 72 2.0 8.0 0.00 0.00 0.00 91 1013.6
20260906060728 73 59 2.0 9.0 0.00 0.00 0.00 91 1013.6
20260906060006 73 82 3.0 10.0 0.00 0.00 0.00 91 1013.5
20260906055459 73 61 3.0 10.0 0.00 0.00 0.00 91 1013.5
20260906054949 74 80 3.0 10.0 0.00 0.00 0.00 91 1013.5
20260906054446 74 49 3.0 9.0 0.00 0.00 0.00 91 1013.5
20260906053940 74 20 2.0 9.0 0.00 0.00 0.00 91 1013.5
20260906053435 74 336 2.0 9.0 0.00 0.00 0.00 91 1013.5
20260906052929 74 69 3.0 9.0 0.00 0.00 0.00 91 1013.4
20260906052417 74 101 3.0 9.0 0.00 0.00 0.00 91 1013.5
20260906051915 74 19 3.0 11.0 0.00 0.00 0.00 90 1013.4
20260906051410 74 90 3.0 11.0 0.00 0.00 0.00 91 1013.4
20260906050904 74 94 3.0 10.0 0.00 0.00 0.00 91 1013.2
20260906050359 74 24 3.0 11.0 0.00 0.00 0.00 91 1013.2
20260906045852 74 89 3.0 11.0 0.00 0.00 0.00 91 1013.1
20260906045346 74 66 3.0 9.0 0.00 0.00 0.00 91 1013.0
20260906044836 74 59 2.0 8.0 0.00 0.00 0.00 90 1013.1
20260906044334 74 92 2.0 8.0 0.00 0.00 0.00 90 1013.1
20260906043829 74 84 2.0 9.0 0.00 0.00 0.00 90 1013.1
20260906043322 74 75 2.0 9.0 0.00 0.00 0.00 89 1013.1
20260906042816 74 5 2.0 7.0 0.00 0.00 0.00 88 1013.0
20260906042307 74 57 2.0 8.0 0.00 0.00 0.00 88 1012.9
20260906041805 74 71 2.0 8.0 0.00 0.00 0.00 87 1012.8
20260906041300 74 316 2.0 7.0 0.00 0.00 0.00 87 1012.8
20260906040751 74 55 1.0 7.0 0.00 0.00 0.00 86 1012.8
20260906040249 75 49 2.0 6.0 0.00 0.00 0.00 86 1012.9
20260906035740 75 53 3.0 8.0 0.00 0.00 0.00 85 1012.8
20260906035230 75 46 4.0 8.0 0.00 0.00 0.00 85 1012.7
20260906034728 75 98 4.0 9.0 0.00 0.00 0.00 84 1012.7
20260906034217 75 71 6.0 10.0 0.00 0.00 0.00 84 1012.7
20260906033716 75 93 6.0 10.0 0.00 0.00 0.00 83 1012.6
20260906033210 75 104 6.0 11.0 0.00 0.00 0.00 83 1012.5
20260906032659 76 84 7.0 11.0 0.00 0.00 0.00 82 1012.5
20260906032155 76 98 6.0 11.0 0.00 0.00 0.00 81 1012.5
20260906031914 76 106 5.0 10.0 0.00 0.00 0.00 81 1012.5
20260906031143 76 98 5.0 10.0 0.00 0.00 0.00 80 1012.5
20260906030637 76 84 5.0 10.0 0.00 0.00 0.00 79 1012.5
20260906030131 76 86 4.0 11.0 0.00 0.00 0.00 79 1012.5
20260906025619 76 0 4.0 11.0 0.00 0.00 0.00 79 1012.7
20260906025119 77 78 3.0 10.0 0.00 0.00 0.00 78 1012.7
20260906024830 77 76 3.0 10.0 0.00 0.00 0.00 78 1012.7
20260906024328 77 88 4.0 11.0 0.00 0.00 0.00 77 1012.7
20260906023601 77 34 4.0 11.0 0.00 0.00 0.00 77 1012.6
20260906023054 78 44 3.0 9.0 0.00 0.00 0.00 77 1012.6
20260906022548 78 57 4.0 11.0 0.00 0.00 0.00 77 1012.7
20260906022301 78 5 5.0 11.0 0.00 0.00 0.00 77 1012.6
20260906021533 78 54 5.0 15.0 0.00 0.00 0.00 77 1012.5
20260906021025 78 80 5.0 15.0 0.00 0.00 0.00 77 1012.4
20260906021004 78 97 4.0 10.0 0.00 0.00 0.00 77 1012.2
20260906020008 78 90 3.0 9.0 0.00 0.00 0.00 77 1012.1
20260906015729 78 84 2.0 8.0 0.00 0.00 0.00 77 1012.0
20260906014957 79 77 2.0 7.0 0.00 0.00 0.00 77 1012.0
20260906014708 79 41 2.0 7.0 0.00 0.00 0.00 77 1011.9
20260906013945 79 114 2.0 5.0 0.00 0.00 0.00 77 1011.7
20260906013440 79 40 2.0 9.0 0.00 0.00 0.00 77 1011.7
20260906012933 79 53 2.0 9.0 0.00 0.00 0.00 77 1011.7
20260906012428 80 75 2.0 5.0 0.00 0.00 0.00 76 1011.6
20260906012139 80 94 2.0 12.0 0.00 0.00 0.00 76 1011.5
20260906011417 80 44 4.0 12.0 0.00 0.00 0.00 75 1011.5
20260906010905 81 47 4.0 14.0 0.00 0.00 0.00 75 1011.3
20260906010404 81 51 3.0 14.0 0.00 0.00 0.00 74 1011.3
20260906005858 82 38 3.0 12.0 0.00 0.00 0.00 75 1011.2
20260906005352 82 79 3.0 7.0 0.00 0.00 0.00 77 1011.1
20260906004845 82 46 2.0 7.0 0.00 0.00 0.00 76 1011.0
20260906004554 83 62 2.0 10.0 0.00 0.00 0.00 77 1010.9
20260906004101 84 98 3.0 10.0 0.00 0.00 0.00 76 1010.8
20260906003328 84 65 4.0 13.0 0.00 0.00 0.00 76 1010.8
20260906002817 84 20 3.0 12.0 0.00 0.00 0.00 75 1010.7
20260906002315 84 38 3.0 6.0 0.00 0.00 0.00 76 1010.7
20260906001809 85 30 3.0 6.0 0.00 0.00 0.00 75 1010.7
20260906001304 85 9 3.0 6.0 0.00 0.00 0.00 75 1010.6
20260906000752 85 45 3.0 7.0 0.00 0.00 0.00 74 1010.7
20260906000251 85 28 3.0 7.0 0.00 0.00 0.00 74 1010.7
20260905235745 86 32 3.0 7.0 0.00 0.00 0.00 73 1010.6
20260905235239 86 19 3.0 5.0 0.00 0.00 0.00 72 1010.7
20260905234734 87 9 3.0 5.0 0.00 0.00 0.00 71 1010.7
20260905234442 87 336 3.0 5.0 0.00 0.00 0.00 69 1010.7
20260905233935 87 338 2.0 5.0 0.00 0.00 0.00 68 1010.7
20260905233215 87 350 2.0 4.0 0.00 0.00 0.00 68 1010.8
20260905232709 87 334 2.0 4.0 0.00 0.00 0.00 69 1010.9
20260905232203 87 351 1.0 4.0 0.00 0.00 0.00 70 1010.9
20260905231653 88 336 0.0 2.0 0.00 0.00 0.00 70 1010.9
20260905231152 88 55 0.0 2.0 0.00 0.00 0.00 71 1011.0
20260905230903 87 42 0.0 2.0 0.00 0.00 0.00 71 1010.9
20260905230140 87 345 1.0 2.0 0.00 0.00 0.00 71 1010.9
20260905225633 87 12 1.0 2.0 0.00 0.00 0.00 68 1011.0
20260905225127 87 28 1.0 2.0 0.00 0.00 0.00 69 1011.0
20260905224618 88 31 1.0 2.0 0.00 0.00 0.00 70 1010.8
20260905224112 88 26 1.0 2.0 0.00 0.00 0.00 69 1010.7
20260905223610 88 350 1.0 2.0 0.00 0.00 0.00 68 1010.6
20260905223103 88 350 0.0 2.0 0.00 0.00 0.00 70 1010.4
20260905222557 89 350 0.0 2.0 0.00 0.00 0.00 69 1010.5
20260905222051 89 342 0.0 2.0 0.00 0.00 0.00 67 1010.6
20260905221800 89 38 0.0 2.0 0.00 0.00 0.00 66 1010.6
20260905221040 89 39 0.0 2.0 0.00 0.00 0.00 67 1010.4
20260905220755 89 350 0.0 2.0 0.00 0.00 0.00 65 1010.4
20260905220249 89 317 0.0 2.0 0.00 0.00 0.00 66 1010.5
20260905215516 89 332 0.0 2.0 0.00 0.00 0.00 65 1010.5
20260905215015 89 311 0.0 2.0 0.00 0.00 0.00 64 1010.7
20260905214510 90 315 0.0 2.0 0.00 0.00 0.00 63 1010.7
20260905213959 90 334 0.0 2.0 0.00 0.00 0.00 63 1010.7
20260905213458 90 321 0.0 5.0 0.00 0.00 0.00 62 1010.7
20260905212951 91 296 0.0 5.0 0.00 0.00 0.00 61 1010.5
20260905212446 91 317 1.0 5.0 0.00 0.00 0.00 60 1010.5
20260905211940 91 13 1.0 5.0 0.00 0.00 0.00 60 1010.7
20260905211429 92 0 1.0 5.0 0.00 0.00 0.00 59 1010.8
20260905210928 92 355 2.0 6.0 0.00 0.00 0.00 57 1010.8
20260905210418 93 341 2.0 6.0 0.00 0.00 0.00 56 1010.8
20260905205915 93 239 2.0 8.0 0.00 0.00 0.00 56 1010.9
20260905205410 93 293 2.0 8.0 0.00 0.00 0.00 56 1010.9
20260905205123 93 324 2.0 6.0 0.00 0.00 0.00 57 1011.0
20260905204359 93 336 3.0 7.0 0.00 0.00 0.00 57 1011.1
20260905203848 93 343 3.0 7.0 0.00 0.00 0.00 56 1011.1
20260905203345 93 355 1.0 7.0 0.00 0.00 0.00 55 1011.2
20260905202839 94 332 2.0 6.0 0.00 0.00 0.00 54 1011.2
20260905202332 94 340 1.0 6.0 0.00 0.00 0.00 54 1011.3
20260905202050 94 316 2.0 6.0 0.00 0.00 0.00 54 1011.4
20260905201316 94 304 1.0 6.0 0.00 0.00 0.00 54 1011.5
20260905200815 94 329 1.0 3.0 0.00 0.00 0.00 56 1011.5
20260905200310 93 296 1.0 4.0 0.00 0.00 0.00 57 1011.5
20260905195803 92 310 2.0 5.0 0.00 0.00 0.00 55 1011.6
20260905195257 92 287 2.0 5.0 0.00 0.00 0.00 56 1011.6
20260905194751 92 0 2.0 8.0 0.00 0.00 0.00 55 1011.6
20260905194245 93 315 3.0 8.0 0.00 0.00 0.00 56 1011.6
20260905193734 93 336 2.0 5.0 0.00 0.00 0.00 58 1011.7
20260905193233 92 311 1.0 7.0 0.00 0.00 0.00 55 1011.7
20260905192728 92 273 2.0 7.0 0.00 0.00 0.00 57 1011.9
20260905192217 92 227 2.0 7.0 0.00 0.00 0.00 56 1012.0
20260905191715 92 234 2.0 7.0 0.00 0.00 0.00 56 1012.1
20260905191205 92 331 4.0 9.0 0.00 0.00 0.00 55 1012.1
20260905190705 91 269 4.0 9.0 0.00 0.00 0.00 58 1012.1
20260905190153 91 273 3.0 8.0 0.00 0.00 0.00 55 1012.2
20260905185651 91 210 3.0 7.0 0.00 0.00 0.00 56 1012.2
20260905185146 91 239 3.0 7.0 0.00 0.00 0.00 56 1012.4
20260905184854 91 230 4.0 7.0 0.00 0.00 0.00 58 1012.5
20260905184134 91 321 3.0 7.0 0.00 0.00 0.00 55 1012.5
20260905183628 90 254 3.0 8.0 0.00 0.00 0.00 56 1012.6
20260905183116 89 252 5.0 9.0 0.00 0.00 0.00 59 1012.7
20260905182615 89 251 6.0 11.0 0.00 0.00 0.00 57 1012.8
20260905182102 89 223 6.0 11.0 0.00 0.00 0.00 56 1012.8
20260905181601 89 241 5.0 11.0 0.00 0.00 0.00 57 1012.8
20260905181055 89 227 6.0 11.0 0.00 0.00 0.00 57 1012.8
20260905180549 89 213 5.0 11.0 0.00 0.00 0.00 56 1012.7
20260905180044 89 248 6.0 10.0 0.00 0.00 0.00 57 1012.7
20260905175533 88 259 6.0 11.0 0.00 0.00 0.00 58 1012.7
20260905175032 88 245 6.0 11.0 0.00 0.00 0.00 57 1012.8
20260905174526 88 199 6.0 11.0 0.00 0.00 0.00 58 1012.9
20260905174019 88 250 6.0 11.0 0.00 0.00 0.00 57 1012.9
20260905173513 87 227 4.0 11.0 0.00 0.00 0.00 58 1013.1
20260905173003 88 244 3.0 7.0 0.00 0.00 0.00 58 1013.1
20260905172501 87 175 4.0 8.0 0.00 0.00 0.00 59 1013.2
20260905171951 87 209 4.0 9.0 0.00 0.00 0.00 59 1013.4
20260905171712 87 222 3.0 9.0 0.00 0.00 0.00 59 1013.5
20260905170943 87 228 2.0 7.0 0.00 0.00 0.00 58 1013.6
20260905170437 87 219 3.0 10.0 0.00 0.00 0.00 58 1013.7
20260905170153 87 244 5.0 10.0 0.00 0.00 0.00 56 1013.8
20260905165421 86 211 5.0 10.0 0.00 0.00 0.00 57 1013.8
20260905164920 86 231 4.0 10.0 0.00 0.00 0.00 57 1013.8
20260905164413 86 233 3.0 9.0 0.00 0.00 0.00 57 1013.9
20260905164127 86 221 4.0 10.0 0.00 0.00 0.00 59 1014.0
20260905163400 85 178 6.0 11.0 0.00 0.00 0.00 58 1014.0
20260905162850 85 232 6.0 11.0 0.00 0.00 0.00 57 1013.9
20260905162350 85 214 4.0 10.0 0.00 0.00 0.00 58 1013.8
20260905162331 85 253 4.0 10.0 0.00 0.00 0.00 58 1013.9
20260905161337 85 207 5.0 11.0 0.00 0.00 0.00 58 1013.8
20260905160831 85 236 5.0 11.0 0.00 0.00 0.00 56 1013.7
20260905160808 85 203 4.0 10.0 0.00 0.00 0.00 58 1013.6
20260905160038 85 176 4.0 10.0 0.00 0.00 0.00 57 1013.7
20260905155309 85 213 3.0 9.0 0.00 0.00 0.00 57 1013.9
20260905154807 85 179 3.0 7.0 0.00 0.00 0.00 58 1014.0
20260905154302 84 209 3.0 7.0 0.00 0.00 0.00 59 1014.1
20260905153756 84 173 4.0 8.0 0.00 0.00 0.00 59 1014.1
20260905153250 83 163 5.0 10.0 0.00 0.00 0.00 59 1014.0
20260905152743 83 183 6.0 10.0 0.00 0.00 0.00 60 1014.1
20260905152235 83 159 7.0 12.0 0.00 0.00 0.00 63 1014.0
20260905151729 82 180 7.0 12.0 0.00 0.00 0.00 60 1014.0
20260905151216 82 145 5.0 11.0 0.00 0.00 0.00 62 1014.1
20260905150713 82 186 5.0 10.0 0.00 0.00 0.00 63 1014.2
20260905150208 82 167 5.0 11.0 0.00 0.00 0.00 62 1014.2
20260905145921 81 151 7.0 13.0 0.00 0.00 0.00 64 1014.3
20260905145156 81 147 8.0 13.0 0.00 0.00 0.00 66 1014.2
20260905144650 80 145 8.0 13.0 0.00 0.00 0.00 65 1014.3
20260905144144 80 157 6.0 13.0 0.00 0.00 0.00 64 1014.3
20260905143638 80 160 7.0 13.0 0.00 0.00 0.00 66 1014.4
20260905143131 80 167 8.0 13.0 0.00 0.00 0.00 66 1014.5
20260905142625 80 169 6.0 12.0 0.00 0.00 0.00 67 1014.6
20260905142120 79 187 5.0 11.0 0.00 0.00 0.00 67 1014.5
20260905141835 79 169 6.0 12.0 0.00 0.00 0.00 69 1014.6
20260905141106 79 188 8.0 14.0 0.00 0.00 0.00 70 1014.6
20260905140600 78 181 9.0 14.0 0.00 0.00 0.00 69 1014.6
20260905140054 78 172 9.0 14.0 0.00 0.00 0.00 71 1014.6
20260905135548 78 161 10.0 13.0 0.00 0.00 0.00 71 1014.6
20260905135306 77 146 11.0 15.0 0.00 0.00 0.00 73 1014.6
20260905134536 77 169 10.0 18.0 0.00 0.00 0.00 72 1014.6
20260905134025 77 154 9.0 18.0 0.00 0.00 0.00 72 1014.7
20260905133523 76 202 9.0 13.0 0.00 0.00 0.00 74 1014.8
20260905133238 76 160 8.0 14.0 0.00 0.00 0.00 73 1014.8
20260905132505 76 144 9.0 14.0 0.00 0.00 0.00 74 1014.9
20260905132227 76 145 10.0 14.0 0.00 0.00 0.00 75 1014.9
20260905131457 76 164 9.0 14.0 0.00 0.00 0.00 75 1014.8
20260905130950 75 157 9.0 13.0 0.00 0.00 0.00 77 1014.9
20260905130444 75 159 8.0 13.0 0.00 0.00 0.00 76 1014.8
20260905130157 75 146 7.0 11.0 0.00 0.00 0.00 76 1014.9
20260905125658 75 198 8.0 12.0 0.00 0.00 0.00 76 1015.1
20260905124924 74 146 7.0 11.0 0.00 0.00 0.00 78 1014.9
20260905124418 74 165 7.0 11.0 0.00 0.00 0.00 79 1014.8
20260905123917 74 151 7.0 11.0 0.00 0.00 0.00 79 1014.9
20260905123418 73 143 8.0 12.0 0.00 0.00 0.00 80 1014.9
20260905123139 73 142 9.0 13.0 0.00 0.00 0.00 80 1014.7
20260905122902 73 132 8.0 13.0 0.00 0.00 0.00 81 1014.6
20260905122124 72 163 7.0 11.0 0.00 0.00 0.00 82 1014.9
20260905122009 73 153 7.0 11.0 0.00 0.00 0.00 82 1014.6
20260905121136 72 145 5.0 10.0 0.00 0.00 0.00 81 1014.9
20260905120417 72 143 5.0 13.0 0.00 0.00 0.00 82 1015.1
20260905115917 72 119 6.0 13.0 0.00 0.00 0.00 82 1014.8
20260905115905 72 119 6.0 13.0 0.00 0.00 0.00 81 1015.0
20260905114916 72 107 7.0 13.0 0.00 0.00 0.00 81 1014.8
20260905114639 72 123 7.0 16.0 0.00 0.00 0.00 81 1014.7
20260905113917 73 107 8.0 17.0 0.00 0.00 0.00 80 1014.7
20260905113413 73 117 8.0 17.0 0.00 0.00 0.00 80 1014.7
20260905113124 73 75 11.0 23.0 0.00 0.00 0.00 80 1014.7
20260905112352 73 130 11.0 19.0 0.00 0.00 0.00 80 1014.5
20260905111843 74 124 12.0 25.0 0.00 0.00 0.00 81 1014.6
20260905111342 74 88 12.0 26.0 0.00 0.00 0.00 83 1014.4
20260905110841 75 111 9.0 24.0 0.00 0.00 0.00 84 1014.3
20260905110341 75 94 8.0 18.0 0.00 0.00 0.00 89 1014.2
20260905105841 75 119 7.0 18.0 0.00 0.00 0.00 91 1013.9
20260905105608 76 81 4.0 9.0 0.00 0.00 0.00 91 1013.4
20260905104840 76 89 2.0 6.0 0.00 0.00 0.00 91 1012.9
20260905104341 76 102 2.0 3.0 0.00 0.00 0.00 91 1012.9
20260905103840 76 99 2.0 3.0 0.00 0.00 0.00 90 1013.0
20260905103340 76 94 2.0 3.0 0.00 0.00 0.00 90 1012.9
20260905102834 76 86 2.0 3.0 0.00 0.00 0.00 90 1013.0
20260905102543 76 82 2.0 3.0 0.00 0.00 0.00 90 1013.0
20260905101825 77 100 2.0 3.0 0.00 0.00 0.00 89 1013.1
20260905101541 77 110 1.0 2.0 0.00 0.00 0.00 89 1013.1
20260905100824 77 234 0.0 2.0 0.00 0.00 0.00 89 1013.1
20260905100322 77 234 0.0 2.0 0.00 0.00 0.00 89 1013.1
20260905095823 77 234 0.0 2.0 0.00 0.00 0.00 89 1013.0
20260905095322 77 234 0.0 2.0 0.00 0.00 0.00 89 1013.0
20260905094822 77 234 0.0 2.0 0.00 0.00 0.00 89 1013.0
20260905094324 77 234 0.0 2.0 0.00 0.00 0.00 89 1013.0
20260905093818 77 234 0.0 2.0 0.00 0.00 0.00 89 1012.9
20260905093307 77 234 1.0 1.0 0.00 0.00 0.00 89 1012.9
20260905092806 77 234 1.0 1.0 0.00 0.00 0.00 89 1012.9
20260905092307 77 234 1.0 1.0 0.00 0.00 0.00 89 1012.8
20260905091808 77 234 0.0 1.0 0.00 0.00 0.00 90 1012.9
20260905091306 77 273 0.0 1.0 0.00 0.00 0.00 90 1012.9
20260905090807 77 273 1.0 3.0 0.00 0.00 0.00 90 1012.9
20260905090526 77 250 1.0 4.0 0.00 0.00 0.00 90 1012.8
20260905090028 77 279 1.0 4.0 0.00 0.00 0.00 90 1012.9
20260905085308 77 168 2.0 3.0 0.00 0.00 0.00 90 1012.8
20260905084801 77 165 2.0 4.0 0.00 0.00 0.00 90 1012.7
20260905084255 77 163 2.0 4.0 0.00 0.00 0.00 90 1012.7
20260905083754 77 175 1.0 2.0 0.00 0.00 0.00 90 1012.6
20260905083513 77 170 1.0 2.0 0.00 0.00 0.00 90 1012.6
20260905082754 77 193 1.0 3.0 0.00 0.00 0.00 90 1012.6
20260905082254 77 171 2.0 4.0 0.00 0.00 0.00 90 1012.6
20260905081756 77 190 2.0 5.0 0.00 0.00 0.00 90 1012.5
20260905081255 77 196 2.0 5.0 0.00 0.00 0.00 90 1012.4
20260905080755 78 182 1.0 3.0 0.00 0.00 0.00 90 1012.4
20260905080255 77 208 1.0 3.0 0.00 0.00 0.00 90 1012.2
20260905075754 78 202 1.0 3.0 0.00 0.00 0.00 90 1012.1
20260905075255 78 227 1.0 4.0 0.00 0.00 0.00 90 1012.1
20260905074754 78 211 1.0 4.0 0.00 0.00 0.00 90 1012.1
20260905074255 78 223 2.0 4.0 0.00 0.00 0.00 89 1012.1
20260905073754 78 239 3.0 4.0 0.00 0.00 0.00 89 1012.0
20260905073255 78 231 3.0 4.0 0.00 0.00 0.00 88 1012.0
20260905072754 78 237 2.0 4.0 0.00 0.00 0.00 88 1012.0
20260905072256 78 229 2.0 4.0 0.00 0.00 0.00 88 1012.2
20260905071748 78 225 2.0 3.0 0.00 0.00 0.00 87 1012.2
20260905071237 78 232 2.0 3.0 0.00 0.00 0.00 87 1012.2
20260905070724 79 232 1.0 3.0 0.00 0.00 0.00 86 1012.4
20260905070216 79 232 2.0 4.0 0.00 0.00 0.00 86 1012.4
20260905065707 79 221 2.0 4.0 0.00 0.00 0.00 85 1012.5